| time (UTC) | temp F | wind direction | speed MPH | gust MPH | rain 1hr in | rain 24hr in | rain mn in | humidity % | barometer mb |
| 20260503173748 | 56 | 267 | 1.0 | 6.0 | 0.00 | 0.00 | 0.00 | 44 | 1018.8 |
| 20260503173244 | 56 | 321 | 2.0 | 9.0 | 0.00 | 0.00 | 0.00 | 43 | 1019.2 |
| 20260503172741 | 55 | 162 | 2.0 | 9.0 | 0.00 | 0.00 | 0.00 | 43 | 1019.2 |
| 20260503172238 | 55 | 302 | 1.0 | 8.0 | 0.00 | 0.00 | 0.00 | 43 | 1019.2 |
| 20260503171735 | 55 | 265 | 2.0 | 7.0 | 0.00 | 0.00 | 0.00 | 45 | 1019.2 |
| 20260503171232 | 55 | 298 | 2.0 | 7.0 | 0.00 | 0.00 | 0.00 | 44 | 1019.2 |
| 20260503170729 | 55 | 138 | 2.0 | 7.0 | 0.00 | 0.00 | 0.00 | 45 | 1019.6 |
| 20260503170226 | 55 | 26 | 2.0 | 5.0 | 0.00 | 0.00 | 0.00 | 45 | 1019.6 |
| 20260503160147 | 53 | 310 | 1.0 | 5.0 | 0.00 | 0.00 | 0.00 | 47 | 1020.3 |
| 20260503150618 | 50 | 277 | 1.0 | 7.0 | 0.00 | 0.00 | 0.00 | 54 | 1020.7 |
| 20260503150114 | 50 | 124 | 2.0 | 7.0 | 0.00 | 0.00 | 0.00 | 54 | 1020.3 |
| 20260503131007 | 46 | 243 | 1.0 | 5.0 | 0.00 | 0.00 | 0.00 | 70 | 1020.3 |
| 20260503130505 | 46 | 243 | 1.0 | 5.0 | 0.00 | 0.00 | 0.00 | 70 | 1020.3 |
| 20260503110350 | 37 | 146 | 0.0 | 5.0 | 0.00 | 0.00 | 0.00 | 85 | 1019.2 |
| 20260503090235 | 40 | 274 | 1.0 | 4.0 | 0.00 | 0.00 | 0.00 | 78 | 1017.8 |
| 20260503081203 | 41 | 261 | 2.0 | 7.0 | 0.00 | 0.00 | 0.00 | 76 | 1017.3 |
| 20260503080658 | 41 | 282 | 1.0 | 5.0 | 0.00 | 0.00 | 0.00 | 76 | 1017.0 |
| 20260503080155 | 41 | 275 | 2.0 | 7.0 | 0.00 | 0.00 | 0.00 | 75 | 1017.0 |
| 20260503072632 | 41 | 276 | 0.0 | 2.0 | 0.00 | 0.00 | 0.00 | 76 | 1016.7 |
| 20260503072129 | 41 | 276 | 0.0 | 1.0 | 0.00 | 0.00 | 0.00 | 76 | 1016.7 |
| 20260503071626 | 41 | 276 | 0.0 | 5.0 | 0.00 | 0.00 | 0.00 | 76 | 1016.7 |
| 20260503071122 | 41 | 276 | 0.0 | 5.0 | 0.00 | 0.00 | 0.00 | 76 | 1016.7 |
| 20260503070620 | 41 | 119 | 0.0 | 4.0 | 0.00 | 0.00 | 0.00 | 75 | 1016.7 |
| 20260503070118 | 41 | 119 | 0.0 | 4.0 | 0.00 | 0.00 | 0.00 | 75 | 1016.7 |
| 20260503055038 | 42 | 153 | 0.0 | 4.0 | 0.00 | 0.00 | 0.00 | 73 | 1016.7 |
| 20260503054534 | 42 | 148 | 0.0 | 2.0 | 0.00 | 0.00 | 0.00 | 73 | 1016.7 |
| 20260503054031 | 42 | 146 | 0.0 | 2.0 | 0.00 | 0.00 | 0.00 | 72 | 1016.7 |
| 20260503053529 | 42 | 146 | 0.0 | 4.0 | 0.00 | 0.00 | 0.00 | 73 | 1016.7 |
| 20260503053027 | 42 | 146 | 0.0 | 4.0 | 0.00 | 0.00 | 0.00 | 72 | 1016.7 |
| 20260503052523 | 42 | 146 | 0.0 | 2.0 | 0.00 | 0.00 | 0.00 | 72 | 1016.7 |
| 20260503052020 | 42 | 146 | 1.0 | 4.0 | 0.00 | 0.00 | 0.00 | 71 | 1016.7 |
| 20260503051515 | 42 | 151 | 1.0 | 4.0 | 0.00 | 0.00 | 0.00 | 72 | 1016.7 |
| 20260503051013 | 42 | 151 | 1.0 | 5.0 | 0.00 | 0.00 | 0.00 | 72 | 1016.7 |
| 20260503050509 | 42 | 154 | 1.0 | 5.0 | 0.00 | 0.00 | 0.00 | 72 | 1016.7 |
| 20260503050007 | 43 | 142 | 1.0 | 4.0 | 0.00 | 0.00 | 0.00 | 72 | 1016.7 |
| 20260503045504 | 43 | 124 | 1.0 | 4.0 | 0.00 | 0.00 | 0.00 | 71 | 1016.7 |
| 20260503045001 | 43 | 144 | 1.0 | 4.0 | 0.00 | 0.00 | 0.00 | 71 | 1016.7 |
| 20260503044457 | 43 | 146 | 1.0 | 4.0 | 0.00 | 0.00 | 0.00 | 72 | 1016.7 |
| 20260503043955 | 43 | 157 | 1.0 | 5.0 | 0.00 | 0.00 | 0.00 | 73 | 1016.3 |
| 20260503043450 | 43 | 157 | 1.0 | 5.0 | 0.00 | 0.00 | 0.00 | 73 | 1016.3 |
| 20260503042947 | 43 | 138 | 1.0 | 5.0 | 0.00 | 0.00 | 0.00 | 72 | 1016.3 |
| 20260503042444 | 43 | 147 | 1.0 | 5.0 | 0.00 | 0.00 | 0.00 | 72 | 1016.3 |
| 20260503041941 | 43 | 152 | 1.0 | 5.0 | 0.00 | 0.00 | 0.00 | 71 | 1016.3 |
| 20260503041437 | 43 | 139 | 2.0 | 8.0 | 0.00 | 0.00 | 0.00 | 70 | 1016.3 |
| 20260503040935 | 44 | 147 | 1.0 | 8.0 | 0.00 | 0.00 | 0.00 | 70 | 1016.3 |
| 20260503040432 | 44 | 141 | 1.0 | 5.0 | 0.00 | 0.00 | 0.00 | 68 | 1015.9 |
| 20260503035929 | 44 | 147 | 1.0 | 5.0 | 0.00 | 0.00 | 0.00 | 69 | 1015.9 |
| 20260503035426 | 44 | 151 | 1.0 | 5.0 | 0.00 | 0.00 | 0.00 | 67 | 1015.9 |
| 20260503034924 | 45 | 145 | 1.0 | 4.0 | 0.00 | 0.00 | 0.00 | 67 | 1015.9 |
| 20260503034421 | 45 | 147 | 1.0 | 4.0 | 0.00 | 0.00 | 0.00 | 67 | 1015.9 |
| 20260503033918 | 45 | 153 | 1.0 | 4.0 | 0.00 | 0.00 | 0.00 | 64 | 1015.6 |
| 20260503033415 | 46 | 137 | 1.0 | 8.0 | 0.00 | 0.00 | 0.00 | 63 | 1015.6 |
| 20260503032913 | 46 | 144 | 1.0 | 8.0 | 0.00 | 0.00 | 0.00 | 62 | 1015.6 |
| 20260503032412 | 46 | 267 | 0.0 | 4.0 | 0.00 | 0.00 | 0.00 | 61 | 1015.6 |
| 20260503031909 | 46 | 288 | 0.0 | 6.0 | 0.00 | 0.00 | 0.00 | 61 | 1015.6 |
| 20260503031407 | 46 | 261 | 0.0 | 6.0 | 0.00 | 0.00 | 0.00 | 61 | 1015.6 |
| 20260503030903 | 46 | 277 | 0.0 | 4.0 | 0.00 | 0.00 | 0.00 | 61 | 1015.6 |
| 20260503030359 | 46 | 142 | 0.0 | 4.0 | 0.00 | 0.00 | 0.00 | 61 | 1015.6 |
| 20260503025856 | 46 | 270 | 0.0 | 2.0 | 0.00 | 0.00 | 0.00 | 61 | 1015.6 |
| 20260503025353 | 46 | 132 | 0.0 | 4.0 | 0.00 | 0.00 | 0.00 | 61 | 1015.6 |
| 20260503024850 | 47 | 142 | 0.0 | 4.0 | 0.00 | 0.00 | 0.00 | 60 | 1015.6 |
| 20260503024347 | 47 | 103 | 0.0 | 4.0 | 0.00 | 0.00 | 0.00 | 60 | 1015.6 |
| 20260503023843 | 47 | 65 | 0.0 | 4.0 | 0.00 | 0.00 | 0.00 | 59 | 1015.6 |
| 20260503023340 | 47 | 261 | 1.0 | 6.0 | 0.00 | 0.00 | 0.00 | 58 | 1015.6 |
| 20260503022837 | 47 | 154 | 1.0 | 6.0 | 0.00 | 0.00 | 0.00 | 58 | 1015.6 |
| 20260503022332 | 48 | 277 | 0.0 | 5.0 | 0.00 | 0.00 | 0.00 | 57 | 1015.6 |
| 20260503021829 | 48 | 244 | 0.0 | 5.0 | 0.00 | 0.00 | 0.00 | 56 | 1015.2 |
| 20260503021325 | 48 | 267 | 1.0 | 7.0 | 0.00 | 0.00 | 0.00 | 56 | 1015.2 |
| 20260503020822 | 48 | 346 | 1.0 | 7.0 | 0.00 | 0.00 | 0.00 | 55 | 1015.2 |
| 20260503020321 | 48 | 317 | 1.0 | 7.0 | 0.00 | 0.00 | 0.00 | 55 | 1015.2 |
| 20260503015816 | 49 | 242 | 2.0 | 11.0 | 0.00 | 0.00 | 0.00 | 55 | 1015.2 |
| 20260503015314 | 49 | 248 | 1.0 | 10.0 | 0.00 | 0.00 | 0.00 | 54 | 1015.2 |
| 20260503014809 | 49 | 290 | 1.0 | 8.0 | 0.00 | 0.00 | 0.00 | 55 | 1015.2 |
| 20260503014307 | 49 | 273 | 1.0 | 8.0 | 0.00 | 0.00 | 0.00 | 54 | 1014.9 |
| 20260503013804 | 49 | 105 | 1.0 | 9.0 | 0.00 | 0.00 | 0.00 | 54 | 1014.9 |
| 20260503013302 | 49 | 266 | 2.0 | 9.0 | 0.00 | 0.00 | 0.00 | 53 | 1014.9 |
| 20260503012758 | 49 | 300 | 3.0 | 9.0 | 0.00 | 0.00 | 0.00 | 53 | 1014.9 |
| 20260503012255 | 49 | 137 | 2.0 | 9.0 | 0.00 | 0.00 | 0.00 | 53 | 1014.9 |
| 20260503011752 | 49 | 273 | 1.0 | 7.0 | 0.00 | 0.00 | 0.00 | 54 | 1014.4 |
| 20260503011249 | 50 | 279 | 1.0 | 8.0 | 0.00 | 0.00 | 0.00 | 53 | 1014.4 |
| 20260503010745 | 50 | 279 | 1.0 | 8.0 | 0.00 | 0.00 | 0.00 | 53 | 1014.4 |
| 20260503010242 | 50 | 314 | 2.0 | 8.0 | 0.00 | 0.00 | 0.00 | 53 | 1014.4 |
| 20260503005740 | 50 | 203 | 2.0 | 8.0 | 0.00 | 0.00 | 0.00 | 52 | 1014.4 |
| 20260503005237 | 50 | 291 | 3.0 | 12.0 | 0.00 | 0.00 | 0.00 | 52 | 1014.1 |
| 20260503004732 | 50 | 161 | 3.0 | 12.0 | 0.00 | 0.00 | 0.00 | 51 | 1014.1 |
| 20260503004231 | 50 | 277 | 4.0 | 14.0 | 0.00 | 0.00 | 0.00 | 50 | 1014.1 |
| 20260503003728 | 51 | 274 | 4.0 | 14.0 | 0.00 | 0.00 | 0.00 | 50 | 1014.1 |
| 20260503003225 | 51 | 252 | 4.0 | 13.0 | 0.00 | 0.00 | 0.00 | 50 | 1014.1 |
| 20260503002722 | 51 | 304 | 3.0 | 13.0 | 0.00 | 0.00 | 0.00 | 50 | 1014.1 |
| 20260503002219 | 51 | 299 | 2.0 | 13.0 | 0.00 | 0.00 | 0.00 | 49 | 1013.8 |
| 20260503001714 | 51 | 310 | 2.0 | 9.0 | 0.00 | 0.00 | 0.00 | 49 | 1013.8 |
| 20260503001211 | 51 | 287 | 3.0 | 11.0 | 0.00 | 0.00 | 0.00 | 48 | 1013.8 |
| 20260503000709 | 52 | 279 | 3.0 | 11.0 | 0.00 | 0.00 | 0.00 | 48 | 1013.8 |
| 20260503000206 | 52 | 302 | 3.0 | 11.0 | 0.00 | 0.00 | 0.00 | 48 | 1013.4 |
| 20260502235703 | 52 | 80 | 2.0 | 11.0 | 0.00 | 0.00 | 0.00 | 47 | 1013.4 |
| 20260502235201 | 53 | 271 | 2.0 | 8.0 | 0.00 | 0.00 | 0.00 | 47 | 1013.4 |
| 20260502234657 | 53 | 270 | 3.0 | 13.0 | 0.00 | 0.00 | 0.00 | 46 | 1013.4 |
| 20260502234149 | 53 | 294 | 3.0 | 13.0 | 0.00 | 0.00 | 0.00 | 45 | 1013.0 |
| 20260502233645 | 53 | 267 | 2.0 | 15.0 | 0.00 | 0.00 | 0.00 | 45 | 1013.0 |
| 20260502233142 | 54 | 215 | 3.0 | 15.0 | 0.00 | 0.00 | 0.00 | 45 | 1013.0 |
| 20260502232638 | 54 | 231 | 4.0 | 21.0 | 0.00 | 0.00 | 0.00 | 44 | 1013.4 |
| 20260502232135 | 54 | 308 | 4.0 | 21.0 | 0.00 | 0.00 | 0.00 | 43 | 1013.0 |
| 20260502231631 | 54 | 294 | 3.0 | 14.0 | 0.00 | 0.00 | 0.00 | 44 | 1013.0 |
| 20260502231129 | 55 | 277 | 3.0 | 14.0 | 0.00 | 0.00 | 0.00 | 44 | 1013.0 |
| 20260502230627 | 55 | 274 | 3.0 | 15.0 | 0.00 | 0.00 | 0.00 | 43 | 1013.0 |
| 20260502230120 | 55 | 311 | 2.0 | 15.0 | 0.00 | 0.00 | 0.00 | 43 | 1013.0 |
| 20260502225615 | 55 | 134 | 3.0 | 10.0 | 0.00 | 0.00 | 0.00 | 44 | 1013.0 |
| 20260502225112 | 55 | 234 | 3.0 | 10.0 | 0.00 | 0.00 | 0.00 | 42 | 1013.0 |
| 20260502224608 | 55 | 279 | 3.0 | 7.0 | 0.00 | 0.00 | 0.00 | 43 | 1013.0 |
| 20260502224105 | 54 | 269 | 2.0 | 11.0 | 0.00 | 0.00 | 0.00 | 44 | 1013.0 |
| 20260502223603 | 54 | 121 | 2.0 | 11.0 | 0.00 | 0.00 | 0.00 | 46 | 1013.0 |
| 20260502223101 | 54 | 182 | 3.0 | 13.0 | 0.00 | 0.00 | 0.00 | 43 | 1013.0 |
| 20260502222558 | 55 | 309 | 4.0 | 13.0 | 0.00 | 0.00 | 0.00 | 44 | 1013.0 |
| 20260502222054 | 55 | 355 | 4.0 | 12.0 | 0.00 | 0.00 | 0.00 | 43 | 1013.0 |
| 20260502221550 | 55 | 311 | 4.0 | 15.0 | 0.00 | 0.00 | 0.00 | 44 | 1013.0 |
| 20260502221048 | 55 | 284 | 4.0 | 15.0 | 0.00 | 0.00 | 0.00 | 44 | 1012.6 |
| 20260502220543 | 55 | 325 | 3.0 | 13.0 | 0.00 | 0.00 | 0.00 | 44 | 1013.0 |
| 20260502220040 | 55 | 270 | 3.0 | 20.0 | 0.00 | 0.00 | 0.00 | 45 | 1012.6 |
| 20260502215537 | 55 | 284 | 5.0 | 20.0 | 0.00 | 0.00 | 0.00 | 42 | 1012.6 |
| 20260502215034 | 55 | 304 | 5.0 | 15.0 | 0.00 | 0.00 | 0.00 | 42 | 1012.6 |
| 20260502214531 | 55 | 282 | 4.0 | 15.0 | 0.00 | 0.00 | 0.00 | 44 | 1012.6 |
| 20260502214029 | 56 | 286 | 3.0 | 19.0 | 0.00 | 0.00 | 0.00 | 45 | 1012.6 |
| 20260502213525 | 56 | 296 | 5.0 | 19.0 | 0.00 | 0.00 | 0.00 | 41 | 1012.3 |
| 20260502213023 | 56 | 22 | 6.0 | 21.0 | 0.00 | 0.00 | 0.00 | 41 | 1012.3 |
| 20260502212522 | 56 | 289 | 5.0 | 21.0 | 0.00 | 0.00 | 0.00 | 42 | 1012.3 |
| 20260502212019 | 56 | 145 | 6.0 | 13.0 | 0.00 | 0.00 | 0.00 | 42 | 1012.3 |
| 20260502211515 | 56 | 296 | 6.0 | 14.0 | 0.00 | 0.00 | 0.00 | 41 | 1012.3 |
| 20260502211012 | 57 | 328 | 4.0 | 14.0 | 0.00 | 0.00 | 0.00 | 43 | 1012.3 |
| 20260502210509 | 57 | 294 | 4.0 | 15.0 | 0.00 | 0.00 | 0.00 | 42 | 1012.0 |
| 20260502210006 | 57 | 300 | 4.0 | 15.0 | 0.00 | 0.00 | 0.00 | 42 | 1012.0 |
| 20260502205502 | 57 | 296 | 4.0 | 15.0 | 0.00 | 0.00 | 0.00 | 42 | 1012.0 |
| 20260502204959 | 57 | 311 | 4.0 | 15.0 | 0.00 | 0.00 | 0.00 | 40 | 1012.0 |
| 20260502204456 | 58 | 269 | 3.0 | 8.0 | 0.00 | 0.00 | 0.00 | 41 | 1012.0 |
| 20260502203954 | 58 | 298 | 3.0 | 9.0 | 0.00 | 0.00 | 0.00 | 41 | 1012.0 |
| 20260502203451 | 58 | 294 | 2.0 | 9.0 | 0.00 | 0.00 | 0.00 | 43 | 1012.0 |
| 20260502202947 | 58 | 309 | 3.0 | 15.0 | 0.00 | 0.00 | 0.00 | 44 | 1012.0 |
| 20260502202444 | 58 | 279 | 3.0 | 15.0 | 0.00 | 0.00 | 0.00 | 40 | 1012.0 |
| 20260502201942 | 57 | 319 | 2.0 | 8.0 | 0.00 | 0.00 | 0.00 | 41 | 1012.0 |
| 20260502201438 | 57 | 342 | 4.0 | 8.0 | 0.00 | 0.00 | 0.00 | 40 | 1012.0 |
| 20260502200935 | 57 | 269 | 3.0 | 14.0 | 0.00 | 0.00 | 0.00 | 43 | 1012.0 |
| 20260502200430 | 57 | 319 | 3.0 | 10.0 | 0.00 | 0.00 | 0.00 | 43 | 1012.0 |
| 20260502195928 | 57 | 267 | 3.0 | 9.0 | 0.00 | 0.00 | 0.00 | 39 | 1012.0 |
| 20260502195425 | 58 | 278 | 3.0 | 13.0 | 0.00 | 0.00 | 0.00 | 45 | 1012.0 |
| 20260502194922 | 58 | 5 | 3.0 | 10.0 | 0.00 | 0.00 | 0.00 | 41 | 1012.0 |
| 20260502194419 | 57 | 300 | 3.0 | 10.0 | 0.00 | 0.00 | 0.00 | 42 | 1012.0 |
| 20260502193914 | 57 | 123 | 3.0 | 10.0 | 0.00 | 0.00 | 0.00 | 45 | 1012.0 |
| 20260502193412 | 56 | 269 | 2.0 | 8.0 | 0.00 | 0.00 | 0.00 | 41 | 1012.0 |
| 20260502192907 | 56 | 304 | 2.0 | 8.0 | 0.00 | 0.00 | 0.00 | 42 | 1012.3 |
| 20260502192404 | 56 | 0 | 3.0 | 11.0 | 0.00 | 0.00 | 0.00 | 43 | 1012.3 |
| 20260502191902 | 56 | 311 | 3.0 | 11.0 | 0.00 | 0.00 | 0.00 | 44 | 1012.6 |
| 20260502191359 | 55 | 309 | 2.0 | 10.0 | 0.00 | 0.00 | 0.00 | 43 | 1012.6 |
| 20260502190856 | 55 | 306 | 3.0 | 8.0 | 0.00 | 0.00 | 0.00 | 44 | 1012.6 |
| 20260502190354 | 55 | 319 | 3.0 | 10.0 | 0.00 | 0.00 | 0.00 | 46 | 1012.6 |
| 20260502185849 | 56 | 336 | 2.0 | 10.0 | 0.00 | 0.00 | 0.00 | 41 | 1012.6 |
| 20260502185345 | 56 | 263 | 1.0 | 5.0 | 0.00 | 0.00 | 0.00 | 45 | 1012.6 |
| 20260502184843 | 56 | 332 | 1.0 | 7.0 | 0.00 | 0.00 | 0.00 | 44 | 1012.6 |
| 20260502184338 | 56 | 281 | 2.0 | 7.0 | 0.00 | 0.00 | 0.00 | 43 | 1012.6 |
| 20260502183835 | 56 | 311 | 2.0 | 7.0 | 0.00 | 0.00 | 0.00 | 45 | 1012.6 |
| 20260502183331 | 56 | 13 | 2.0 | 7.0 | 0.00 | 0.00 | 0.00 | 43 | 1012.6 |
| 20260502182826 | 57 | 298 | 1.0 | 5.0 | 0.00 | 0.00 | 0.00 | 48 | 1012.6 |
| 20260502182321 | 57 | 114 | 1.0 | 5.0 | 0.00 | 0.00 | 0.00 | 48 | 1012.6 |
| 20260502181818 | 57 | 273 | 1.0 | 5.0 | 0.00 | 0.00 | 0.00 | 46 | 1012.6 |
| 20260502181317 | 57 | 140 | 2.0 | 11.0 | 0.00 | 0.00 | 0.00 | 49 | 1012.6 |
| 20260502180815 | 57 | 281 | 2.0 | 11.0 | 0.00 | 0.00 | 0.00 | 47 | 1012.6 |
| 20260502180312 | 57 | 244 | 3.0 | 11.0 | 0.00 | 0.00 | 0.00 | 46 | 1012.6 |